Location: Palomar Mountain Lodge
(33.3110°N, 116.8495°W)
Time: 00:10:27
(UTC-08:00)

Cosmos 1603 - Pass Details

Date: 19 May 2017
Orbit: 830 x 861 km, 71.0° (Epoch: 20 November)

Event Time Altitude Azimuth Distance (km) Brightness Sun altitude
Rises 20:01:45 0° 208° (SSW) 3,404 6.9 -4.2°
Reaches altitude 10° 20:04:13 10° 212° (SSW) 2,475 6.2 -4.7°
Maximum altitude 20:09:51 62° 292° (WNW) 958 4.4 -5.7°
Drops below altitude 10° 20:15:32 10° 13° (NNE) 2,498 6.4 -6.8°
Sets 20:18:03 0° 17° (NNE) 3,438 7.0 -7.2°
